| time (UTC) | temp C | wind direction | speed KPH | gust KPH | rain 1hr cm | rain 24hr cm | rain mn cm | humidity % | barometer mb |
| 20260904125921 | 26 | 214 | 0.0 | 4.8 | 0.00 | 0.00 | 0.00 | 69 | 1014.2 |
| 20260904125408 | 26 | 202 | 0.0 | 11.3 | 0.00 | 0.00 | 0.00 | 69 | 1014.1 |
| 20260904124855 | 26 | 195 | 0.0 | 6.4 | 0.00 | 0.00 | 0.00 | 70 | 1014.1 |
| 20260904124342 | 26 | 212 | 0.0 | 9.7 | 0.00 | 0.00 | 0.00 | 70 | 1013.9 |
| 20260904123829 | 25 | 158 | 0.0 | 6.4 | 0.00 | 0.00 | 0.00 | 70 | 1014.0 |
| 20260904123316 | 26 | 221 | 0.0 | 9.7 | 0.00 | 0.00 | 0.00 | 71 | 1013.9 |
| 20260904122803 | 25 | 217 | 0.0 | 11.3 | 0.00 | 0.00 | 0.00 | 71 | 1013.8 |
| 20260904122250 | 25 | 194 | 0.0 | 4.8 | 0.00 | 0.00 | 0.00 | 71 | 1013.8 |
| 20260904121737 | 25 | 200 | 0.0 | 3.2 | 0.00 | 0.00 | 0.00 | 71 | 1013.7 |
| 20260904121224 | 25 | 194 | 3.2 | 11.3 | 0.00 | 0.00 | 0.00 | 71 | 1013.7 |
| 20260904120711 | 25 | 218 | 0.0 | 8.0 | 0.00 | 0.00 | 0.00 | 71 | 1013.6 |
| 20260904120158 | 26 | 207 | 0.0 | 8.0 | 0.00 | 0.00 | 0.00 | 70 | 1013.6 |
| 20260904115645 | 26 | 214 | 0.0 | 16.1 | 0.00 | 0.00 | 0.00 | 70 | 1013.6 |
| 20260904115132 | 26 | 173 | 0.0 | 3.2 | 0.00 | 0.00 | 0.00 | 70 | 1013.4 |
| 20260904114619 | 26 | 173 | 3.2 | 12.9 | 0.00 | 0.00 | 0.00 | 70 | 1013.3 |
| 20260904114106 | 25 | 200 | 0.0 | 9.7 | 0.00 | 0.00 | 0.00 | 70 | 1013.3 |
| 20260904113553 | 26 | 142 | 0.0 | 11.3 | 0.00 | 0.00 | 0.00 | 70 | 1013.2 |
| 20260904113040 | 26 | 146 | 0.0 | 4.8 | 0.00 | 0.00 | 0.00 | 70 | 1013.2 |
| 20260904112527 | 25 | 187 | 0.0 | 9.7 | 0.00 | 0.00 | 0.00 | 70 | 1013.2 |
| 20260904112014 | 25 | 210 | 0.0 | 4.8 | 0.00 | 0.00 | 0.00 | 70 | 1013.1 |
| 20260904111501 | 25 | 200 | 0.0 | 6.4 | 0.00 | 0.00 | 0.00 | 70 | 1013.1 |
| 20260904110948 | 25 | 197 | 0.0 | 4.8 | 0.00 | 0.00 | 0.00 | 70 | 1013.1 |
| 20260904110435 | 25 | 210 | 0.0 | 4.8 | 0.00 | 0.00 | 0.00 | 70 | 1013.0 |
| 20260904105922 | 25 | 217 | 1.6 | 4.8 | 0.00 | 0.00 | 0.00 | 70 | 1013.0 |
| 20260904105409 | 25 | 180 | 0.0 | 0.0 | 0.00 | 0.00 | 0.00 | 70 | 1013.0 |
| 20260904104856 | 25 | 180 | 0.0 | 11.3 | 0.00 | 0.00 | 0.00 | 70 | 1013.0 |
| 20260904104343 | 25 | 219 | 0.0 | 9.7 | 0.00 | 0.00 | 0.00 | 70 | 1013.0 |
| 20260904103830 | 25 | 215 | 8.0 | 11.3 | 0.00 | 0.00 | 0.00 | 70 | 1013.0 |
| 20260904103317 | 26 | 214 | 1.6 | 3.2 | 0.00 | 0.00 | 0.00 | 70 | 1013.0 |
| 20260904102804 | 26 | 163 | 0.0 | 6.4 | 0.00 | 0.00 | 0.00 | 69 | 1013.0 |
| 20260904102251 | 26 | 210 | 0.0 | 6.4 | 0.00 | 0.00 | 0.00 | 69 | 1012.9 |
| 20260904101738 | 26 | 149 | 0.0 | 6.4 | 0.00 | 0.00 | 0.00 | 69 | 1012.9 |
| 20260904101225 | 26 | 190 | 0.0 | 9.7 | 0.00 | 0.00 | 0.00 | 69 | 1012.9 |
| 20260904100712 | 26 | 172 | 0.0 | 6.4 | 0.00 | 0.00 | 0.00 | 68 | 1012.8 |
| 20260904100159 | 26 | 172 | 0.0 | 3.2 | 0.00 | 0.00 | 0.00 | 68 | 1012.8 |
| 20260904095646 | 26 | 181 | 0.0 | 9.7 | 0.00 | 0.00 | 0.00 | 68 | 1012.9 |
| 20260904095133 | 26 | 165 | 0.0 | 3.2 | 0.00 | 0.00 | 0.00 | 68 | 1012.8 |
| 20260904094620 | 26 | 170 | 0.0 | 6.4 | 0.00 | 0.00 | 0.00 | 67 | 1012.7 |
| 20260904094107 | 26 | 174 | 0.0 | 8.0 | 0.00 | 0.00 | 0.00 | 66 | 1012.7 |
| 20260904093554 | 26 | 158 | 0.0 | 0.0 | 0.00 | 0.00 | 0.00 | 65 | 1012.6 |
| 20260904093041 | 26 | 158 | 0.0 | 6.4 | 0.00 | 0.00 | 0.00 | 65 | 1012.6 |
| 20260904092528 | 26 | 200 | 0.0 | 3.2 | 0.00 | 0.00 | 0.00 | 67 | 1012.5 |
| 20260904092015 | 26 | 179 | 0.0 | 3.2 | 0.00 | 0.00 | 0.00 | 67 | 1012.5 |
| 20260904091502 | 26 | 180 | 0.0 | 6.4 | 0.00 | 0.00 | 0.00 | 66 | 1012.5 |
| 20260904090949 | 26 | 188 | 0.0 | 0.0 | 0.00 | 0.00 | 0.00 | 66 | 1012.5 |
| 20260904090436 | 26 | 188 | 0.0 | 0.0 | 0.00 | 0.00 | 0.00 | 66 | 1012.4 |
| 20260904085923 | 26 | 188 | 0.0 | 0.0 | 0.00 | 0.00 | 0.00 | 66 | 1012.3 |
| 20260904085410 | 26 | 188 | 0.0 | 8.0 | 0.00 | 0.00 | 0.00 | 66 | 1012.3 |
| 20260904084857 | 26 | 191 | 0.0 | 0.0 | 0.00 | 0.00 | 0.00 | 66 | 1012.2 |
| 20260904084344 | 26 | 191 | 0.0 | 3.2 | 0.00 | 0.00 | 0.00 | 65 | 1012.3 |
| 20260904083831 | 27 | 191 | 0.0 | 0.0 | 0.00 | 0.00 | 0.00 | 65 | 1012.2 |
| 20260904083318 | 26 | 191 | 0.0 | 6.4 | 0.00 | 0.00 | 0.00 | 65 | 1012.3 |
| 20260904082805 | 27 | 173 | 0.0 | 0.0 | 0.00 | 0.00 | 0.00 | 64 | 1012.3 |
| 20260904082252 | 27 | 173 | 0.0 | 6.4 | 0.00 | 0.00 | 0.00 | 65 | 1012.2 |
| 20260904081739 | 27 | 181 | 0.0 | 0.0 | 0.00 | 0.00 | 0.00 | 64 | 1012.1 |
| 20260904081226 | 27 | 181 | 0.0 | 0.0 | 0.00 | 0.00 | 0.00 | 64 | 1012.1 |
| 20260904080713 | 27 | 181 | 0.0 | 0.0 | 0.00 | 0.00 | 0.00 | 64 | 1012.1 |
| 20260904080200 | 27 | 97 | 0.0 | 4.8 | 0.00 | 0.00 | 0.00 | 63 | 1012.1 |
| 20260904075647 | 27 | 159 | 0.0 | 0.0 | 0.00 | 0.00 | 0.00 | 63 | 1012.0 |
| 20260904075134 | 27 | 159 | 0.0 | 0.0 | 0.00 | 0.00 | 0.00 | 63 | 1012.0 |
| 20260904074621 | 27 | 159 | 0.0 | 0.0 | 0.00 | 0.00 | 0.00 | 62 | 1012.0 |
| 20260904074108 | 27 | 159 | 0.0 | 0.0 | 0.00 | 0.00 | 0.00 | 62 | 1012.0 |
| 20260904073555 | 27 | 159 | 0.0 | 9.7 | 0.00 | 0.00 | 0.00 | 62 | 1012.0 |
| 20260904073042 | 27 | 235 | 0.0 | 0.0 | 0.00 | 0.00 | 0.00 | 61 | 1011.9 |
| 20260904072529 | 27 | 235 | 0.0 | 0.0 | 0.00 | 0.00 | 0.00 | 61 | 1012.0 |
| 20260904072016 | 27 | 235 | 0.0 | 0.0 | 0.00 | 0.00 | 0.00 | 61 | 1012.0 |
| 20260904071503 | 27 | 235 | 0.0 | 0.0 | 0.00 | 0.00 | 0.00 | 60 | 1012.1 |
| 20260904070950 | 28 | 235 | 0.0 | 0.0 | 0.00 | 0.00 | 0.00 | 59 | 1012.1 |
| 20260904070437 | 28 | 235 | 0.0 | 0.0 | 0.00 | 0.00 | 0.00 | 58 | 1012.1 |
| 20260904065924 | 28 | 235 | 0.0 | 0.0 | 0.00 | 0.00 | 0.00 | 58 | 1012.1 |
| 20260904065411 | 28 | 235 | 0.0 | 0.0 | 0.00 | 0.00 | 0.00 | 58 | 1012.1 |
| 20260904064858 | 28 | 235 | 0.0 | 0.0 | 0.00 | 0.00 | 0.00 | 57 | 1012.1 |
| 20260904064345 | 28 | 235 | 0.0 | 11.3 | 0.00 | 0.00 | 0.00 | 57 | 1012.2 |
| 20260904063832 | 28 | 221 | 3.2 | 6.4 | 0.00 | 0.00 | 0.00 | 56 | 1012.2 |
| 20260904063319 | 28 | 210 | 0.0 | 0.0 | 0.00 | 0.00 | 0.00 | 55 | 1012.2 |
| 20260904062806 | 29 | 210 | 0.0 | 14.5 | 0.00 | 0.00 | 0.00 | 55 | 1012.1 |
| 20260904062253 | 29 | 217 | 0.0 | 0.0 | 0.00 | 0.00 | 0.00 | 54 | 1012.2 |
| 20260904061740 | 29 | 217 | 0.0 | 3.2 | 0.00 | 0.00 | 0.00 | 53 | 1012.1 |
| 20260904061227 | 29 | 180 | 0.0 | 0.0 | 0.00 | 0.00 | 0.00 | 53 | 1012.1 |
| 20260904060714 | 29 | 180 | 0.0 | 4.8 | 0.00 | 0.00 | 0.00 | 53 | 1012.2 |
| 20260904060201 | 29 | 202 | 0.0 | 0.0 | 0.00 | 0.00 | 0.00 | 53 | 1012.2 |
| 20260904055648 | 29 | 202 | 0.0 | 4.8 | 0.00 | 0.00 | 0.00 | 52 | 1012.2 |
| 20260904055135 | 29 | 204 | 0.0 | 4.8 | 0.00 | 0.00 | 0.00 | 52 | 1012.1 |
| 20260904054622 | 30 | 221 | 0.0 | 11.3 | 0.00 | 0.00 | 0.00 | 51 | 1012.1 |
| 20260904054109 | 29 | 177 | 3.2 | 8.0 | 0.00 | 0.00 | 0.00 | 51 | 1012.0 |
| 20260904053556 | 29 | 200 | 0.0 | 4.8 | 0.00 | 0.00 | 0.00 | 51 | 1012.0 |
| 20260904053043 | 30 | 204 | 0.0 | 0.0 | 0.00 | 0.00 | 0.00 | 51 | 1012.0 |
| 20260904052530 | 29 | 204 | 0.0 | 0.0 | 0.00 | 0.00 | 0.00 | 50 | 1012.0 |
| 20260904052017 | 29 | 204 | 0.0 | 0.0 | 0.00 | 0.00 | 0.00 | 50 | 1011.9 |
| 20260904051504 | 29 | 204 | 0.0 | 4.8 | 0.00 | 0.00 | 0.00 | 50 | 1011.9 |
| 20260904050951 | 30 | 211 | 0.0 | 3.2 | 0.00 | 0.00 | 0.00 | 49 | 1011.9 |
| 20260904050438 | 30 | 184 | 0.0 | 1.6 | 0.00 | 0.00 | 0.00 | 49 | 1011.8 |
| 20260904045925 | 30 | 198 | 0.0 | 3.2 | 0.00 | 0.00 | 0.00 | 49 | 1011.9 |
| 20260904045412 | 30 | 198 | 0.0 | 4.8 | 0.00 | 0.00 | 0.00 | 49 | 1011.9 |
| 20260904044859 | 29 | 197 | 0.0 | 0.0 | 0.00 | 0.00 | 0.00 | 50 | 1011.9 |
| 20260904044346 | 29 | 197 | 0.0 | 9.7 | 0.00 | 0.00 | 0.00 | 50 | 1011.9 |
| 20260904043833 | 29 | 211 | 0.0 | 0.0 | 0.00 | 0.00 | 0.00 | 50 | 1011.8 |
| 20260904043320 | 30 | 211 | 0.0 | 0.0 | 0.00 | 0.00 | 0.00 | 50 | 1011.8 |
| 20260904042807 | 30 | 211 | 0.0 | 0.0 | 0.00 | 0.00 | 0.00 | 50 | 1011.8 |
| 20260904042254 | 30 | 211 | 0.0 | 0.0 | 0.00 | 0.00 | 0.00 | 50 | 1011.7 |
| 20260904041741 | 30 | 211 | 0.0 | 0.0 | 0.00 | 0.00 | 0.00 | 49 | 1011.7 |
| 20260904041228 | 30 | 211 | 0.0 | 3.2 | 0.00 | 0.00 | 0.00 | 49 | 1011.7 |
| 20260904040715 | 30 | 211 | 0.0 | 0.0 | 0.00 | 0.00 | 0.00 | 48 | 1011.8 |
| 20260904040202 | 30 | 211 | 0.0 | 0.0 | 0.00 | 0.00 | 0.00 | 49 | 1011.7 |
| 20260904035649 | 30 | 211 | 0.0 | 3.2 | 0.00 | 0.00 | 0.00 | 49 | 1011.7 |
| 20260904035136 | 30 | 128 | 0.0 | 0.0 | 0.00 | 0.00 | 0.00 | 49 | 1011.8 |
| 20260904034623 | 30 | 128 | 0.0 | 0.0 | 0.00 | 0.00 | 0.00 | 48 | 1011.7 |
| 20260904034110 | 30 | 128 | 0.0 | 0.0 | 0.00 | 0.00 | 0.00 | 48 | 1011.7 |
| 20260904033557 | 30 | 128 | 0.0 | 0.0 | 0.00 | 0.00 | 0.00 | 48 | 1011.7 |
| 20260904033044 | 30 | 128 | 1.6 | 1.6 | 0.00 | 0.00 | 0.00 | 47 | 1011.7 |
| 20260904032531 | 30 | 128 | 0.0 | 4.8 | 0.00 | 0.00 | 0.00 | 47 | 1011.7 |
| 20260904032018 | 30 | 105 | 0.0 | 6.4 | 0.00 | 0.00 | 0.00 | 48 | 1011.7 |
| 20260904031505 | 30 | 176 | 0.0 | 6.4 | 0.00 | 0.00 | 0.00 | 47 | 1011.6 |
| 20260904030952 | 30 | 179 | 0.0 | 4.8 | 0.00 | 0.00 | 0.00 | 48 | 1011.7 |
| 20260904030439 | 30 | 179 | 0.0 | 6.4 | 0.00 | 0.00 | 0.00 | 48 | 1011.6 |
| 20260904025926 | 30 | 124 | 0.0 | 8.0 | 0.00 | 0.00 | 0.00 | 47 | 1011.6 |
| 20260904025413 | 30 | 155 | 0.0 | 0.0 | 0.00 | 0.00 | 0.00 | 48 | 1011.6 |
| 20260904024900 | 30 | 155 | 0.0 | 0.0 | 0.00 | 0.00 | 0.00 | 48 | 1011.6 |
| 20260904024347 | 30 | 155 | 0.0 | 4.8 | 0.00 | 0.00 | 0.00 | 48 | 1011.6 |
| 20260904023834 | 30 | 172 | 0.0 | 9.7 | 0.00 | 0.00 | 0.00 | 48 | 1011.5 |
| 20260904023321 | 30 | 174 | 0.0 | 0.0 | 0.00 | 0.00 | 0.00 | 49 | 1011.5 |
| 20260904022808 | 30 | 174 | 0.0 | 0.0 | 0.00 | 0.00 | 0.00 | 49 | 1011.6 |
| 20260904022255 | 30 | 174 | 0.0 | 0.0 | 0.00 | 0.00 | 0.00 | 49 | 1011.6 |
| 20260904021742 | 30 | 174 | 0.0 | 0.0 | 0.00 | 0.00 | 0.00 | 49 | 1011.6 |
| 20260904021229 | 31 | 174 | 0.0 | 0.0 | 0.00 | 0.00 | 0.00 | 48 | 1011.6 |
| 20260904020716 | 31 | 174 | 0.0 | 3.2 | 0.00 | 0.00 | 0.00 | 48 | 1011.4 |
| 20260904020203 | 31 | 148 | 0.0 | 0.0 | 0.00 | 0.00 | 0.00 | 48 | 1011.4 |
| 20260904015650 | 31 | 148 | 0.0 | 3.2 | 0.00 | 0.00 | 0.00 | 47 | 1011.3 |
| 20260904015137 | 31 | 184 | 0.0 | 0.0 | 0.00 | 0.00 | 0.00 | 47 | 1011.3 |
| 20260904014624 | 31 | 184 | 0.0 | 0.0 | 0.00 | 0.00 | 0.00 | 47 | 1011.2 |
| 20260904014111 | 31 | 184 | 0.0 | 0.0 | 0.00 | 0.00 | 0.00 | 47 | 1011.1 |
| 20260904013558 | 31 | 184 | 0.0 | 0.0 | 0.00 | 0.00 | 0.00 | 46 | 1011.0 |
| 20260904013045 | 31 | 184 | 0.0 | 0.0 | 0.00 | 0.00 | 0.00 | 45 | 1010.9 |
| 20260904012532 | 32 | 184 | 0.0 | 0.0 | 0.00 | 0.00 | 0.00 | 44 | 1010.8 |
| 20260904012019 | 32 | 184 | 0.0 | 0.0 | 0.00 | 0.00 | 0.00 | 44 | 1010.8 |
| 20260904011506 | 32 | 184 | 0.0 | 0.0 | 0.00 | 0.00 | 0.00 | 43 | 1010.8 |
| 20260904010953 | 32 | 184 | 0.0 | 0.0 | 0.00 | 0.00 | 0.00 | 43 | 1010.6 |
| 20260904010440 | 32 | 184 | 0.0 | 0.0 | 0.00 | 0.00 | 0.00 | 43 | 1010.6 |
| 20260904005927 | 32 | 184 | 0.0 | 0.0 | 0.00 | 0.00 | 0.00 | 42 | 1010.5 |
| 20260904005414 | 32 | 184 | 0.0 | 0.0 | 0.00 | 0.00 | 0.00 | 42 | 1010.5 |
| 20260904004901 | 32 | 184 | 0.0 | 0.0 | 0.00 | 0.00 | 0.00 | 42 | 1010.4 |
| 20260904004348 | 32 | 184 | 0.0 | 0.0 | 0.00 | 0.00 | 0.00 | 41 | 1010.3 |
| 20260904003835 | 32 | 184 | 0.0 | 0.0 | 0.00 | 0.00 | 0.00 | 42 | 1010.4 |
| 20260904003322 | 32 | 184 | 0.0 | 0.0 | 0.00 | 0.00 | 0.00 | 41 | 1010.4 |
| 20260904002809 | 33 | 184 | 0.0 | 6.4 | 0.00 | 0.00 | 0.00 | 40 | 1010.5 |
| 20260904002256 | 33 | 143 | 0.0 | 0.0 | 0.00 | 0.00 | 0.00 | 40 | 1010.4 |
| 20260904001743 | 33 | 143 | 0.0 | 9.7 | 0.00 | 0.00 | 0.00 | 40 | 1010.4 |
| 20260904001230 | 33 | 139 | 0.0 | 0.0 | 0.00 | 0.00 | 0.00 | 39 | 1010.3 |
| 20260904000717 | 33 | 139 | 0.0 | 11.3 | 0.00 | 0.00 | 0.00 | 39 | 1010.3 |
| 20260904000204 | 33 | 111 | 6.4 | 19.3 | 0.00 | 0.00 | 0.00 | 38 | 1010.4 |
| 20260903235651 | 33 | 159 | 8.0 | 20.9 | 0.00 | 0.00 | 0.00 | 38 | 1010.3 |
| 20260903235138 | 33 | 172 | 8.0 | 17.7 | 0.00 | 0.00 | 0.00 | 38 | 1010.3 |
| 20260903234625 | 33 | 174 | 0.0 | 4.8 | 0.00 | 0.00 | 0.00 | 38 | 1010.3 |
| 20260903234112 | 33 | 205 | 0.0 | 11.3 | 0.00 | 0.00 | 0.00 | 38 | 1010.4 |
| 20260903233559 | 33 | 219 | 4.8 | 17.7 | 0.00 | 0.00 | 0.00 | 38 | 1010.3 |
| 20260903233046 | 34 | 180 | 1.6 | 19.3 | 0.00 | 0.00 | 0.00 | 37 | 1010.3 |
| 20260903232533 | 34 | 190 | 0.0 | 11.3 | 0.00 | 0.00 | 0.00 | 37 | 1010.4 |
| 20260903232020 | 34 | 194 | 0.0 | 6.4 | 0.00 | 0.00 | 0.00 | 37 | 1010.3 |
| 20260903231507 | 34 | 159 | 0.0 | 11.3 | 0.00 | 0.00 | 0.00 | 36 | 1010.4 |
| 20260903230954 | 34 | 225 | 0.0 | 0.0 | 0.00 | 0.00 | 0.00 | 37 | 1010.3 |
| 20260903230441 | 34 | 225 | 3.2 | 17.7 | 0.00 | 0.00 | 0.00 | 37 | 1010.4 |
| 20260903225928 | 34 | 162 | 4.8 | 17.7 | 0.00 | 0.00 | 0.00 | 37 | 1010.2 |
| 20260903225415 | 34 | 146 | 3.2 | 14.5 | 0.00 | 0.00 | 0.00 | 38 | 1010.3 |
| 20260903224902 | 34 | 221 | 1.6 | 20.9 | 0.00 | 0.00 | 0.00 | 36 | 1010.3 |
| 20260903224349 | 34 | 172 | 6.4 | 8.0 | 0.00 | 0.00 | 0.00 | 37 | 1010.3 |
| 20260903223836 | 34 | 105 | 0.0 | 17.7 | 0.00 | 0.00 | 0.00 | 37 | 1010.3 |
| 20260903223323 | 34 | 176 | 0.0 | 17.7 | 0.00 | 0.00 | 0.00 | 36 | 1010.2 |
| 20260903222810 | 34 | 156 | 0.0 | 3.2 | 0.00 | 0.00 | 0.00 | 36 | 1010.2 |
| 20260903222257 | 34 | 198 | 0.0 | 16.1 | 0.00 | 0.00 | 0.00 | 36 | 1010.2 |
| 20260903221744 | 35 | 207 | 14.5 | 20.9 | 0.00 | 0.00 | 0.00 | 38 | 1010.2 |
| 20260903221231 | 35 | 165 | 0.0 | 19.3 | 0.00 | 0.00 | 0.00 | 36 | 1010.3 |
| 20260903220718 | 35 | 214 | 0.0 | 16.1 | 0.00 | 0.00 | 0.00 | 35 | 1010.3 |
| 20260903220205 | 35 | 207 | 1.6 | 16.1 | 0.00 | 0.00 | 0.00 | 36 | 1010.3 |
| 20260903215652 | 35 | 231 | 6.4 | 12.9 | 0.00 | 0.00 | 0.00 | 37 | 1010.3 |
| 20260903215139 | 35 | 183 | 8.0 | 14.5 | 0.00 | 0.00 | 0.00 | 36 | 1010.4 |
| 20260903214626 | 35 | 181 | 9.7 | 22.5 | 0.00 | 0.00 | 0.00 | 36 | 1010.5 |
| 20260903214113 | 35 | 172 | 0.0 | 16.1 | 0.00 | 0.00 | 0.00 | 35 | 1010.5 |
| 20260903213600 | 35 | 229 | 0.0 | 9.7 | 0.00 | 0.00 | 0.00 | 35 | 1010.5 |
| 20260903213047 | 34 | 222 | 3.2 | 17.7 | 0.00 | 0.00 | 0.00 | 36 | 1010.6 |
| 20260903212534 | 35 | 198 | 0.0 | 19.3 | 0.00 | 0.00 | 0.00 | 37 | 1010.8 |
| 20260903212021 | 35 | 208 | 0.0 | 9.7 | 0.00 | 0.00 | 0.00 | 36 | 1010.9 |
| 20260903211508 | 34 | 60 | 0.0 | 8.0 | 0.00 | 0.00 | 0.00 | 38 | 1011.1 |
| 20260903210955 | 34 | 143 | 6.4 | 17.7 | 0.00 | 0.00 | 0.00 | 37 | 1011.1 |
| 20260903210442 | 35 | 158 | 8.0 | 16.1 | 0.00 | 0.00 | 0.00 | 37 | 1011.1 |
| 20260903205929 | 35 | 172 | 0.0 | 0.0 | 0.00 | 0.00 | 0.00 | 37 | 1011.1 |
| 20260903205416 | 34 | 172 | 0.0 | 17.7 | 0.00 | 0.00 | 0.00 | 37 | 1011.2 |
| 20260903204903 | 34 | 219 | 4.8 | 11.3 | 0.00 | 0.00 | 0.00 | 38 | 1011.3 |
| 20260903204350 | 34 | 217 | 0.0 | 17.7 | 0.00 | 0.00 | 0.00 | 38 | 1011.3 |
| 20260903203837 | 34 | 142 | 1.6 | 16.1 | 0.00 | 0.00 | 0.00 | 39 | 1011.3 |
| 20260903203324 | 34 | 121 | 6.4 | 12.9 | 0.00 | 0.00 | 0.00 | 38 | 1011.3 |
| 20260903202811 | 34 | 215 | 0.0 | 16.1 | 0.00 | 0.00 | 0.00 | 38 | 1011.4 |
| 20260903202258 | 34 | 149 | 0.0 | 25.7 | 0.00 | 0.00 | 0.00 | 38 | 1011.5 |
| 20260903201745 | 34 | 173 | 1.6 | 16.1 | 0.00 | 0.00 | 0.00 | 39 | 1011.5 |
| 20260903201232 | 34 | 145 | 0.0 | 17.7 | 0.00 | 0.00 | 0.00 | 38 | 1011.5 |
| 20260903200719 | 34 | 134 | 0.0 | 12.9 | 0.00 | 0.00 | 0.00 | 38 | 1011.5 |
| 20260903200206 | 34 | 200 | 0.0 | 16.1 | 0.00 | 0.00 | 0.00 | 38 | 1011.6 |
| 20260903195653 | 34 | 207 | 6.4 | 17.7 | 0.00 | 0.00 | 0.00 | 38 | 1011.6 |
| 20260903195140 | 34 | 202 | 0.0 | 20.9 | 0.00 | 0.00 | 0.00 | 40 | 1011.6 |
| 20260903194627 | 33 | 243 | 3.2 | 11.3 | 0.00 | 0.00 | 0.00 | 40 | 1011.7 |
| 20260903194114 | 33 | 231 | 0.0 | 22.5 | 0.00 | 0.00 | 0.00 | 39 | 1011.7 |
| 20260903193601 | 34 | 208 | 1.6 | 19.3 | 0.00 | 0.00 | 0.00 | 39 | 1011.8 |
| 20260903193048 | 34 | 167 | 0.0 | 14.5 | 0.00 | 0.00 | 0.00 | 39 | 1011.8 |
| 20260903192535 | 34 | 235 | 0.0 | 12.9 | 0.00 | 0.00 | 0.00 | 40 | 1011.8 |
| 20260903192022 | 33 | 194 | 0.0 | 17.7 | 0.00 | 0.00 | 0.00 | 40 | 1011.9 |
| 20260903191509 | 33 | 221 | 0.0 | 17.7 | 0.00 | 0.00 | 0.00 | 40 | 1011.8 |
| 20260903190956 | 33 | 169 | 4.8 | 19.3 | 0.00 | 0.00 | 0.00 | 40 | 1011.9 |
| 20260903190443 | 33 | 197 | 0.0 | 20.9 | 0.00 | 0.00 | 0.00 | 40 | 1011.9 |
| 20260903185930 | 33 | 193 | 11.3 | 17.7 | 0.00 | 0.00 | 0.00 | 41 | 1011.9 |
| 20260903185417 | 33 | 195 | 0.0 | 16.1 | 0.00 | 0.00 | 0.00 | 41 | 1012.0 |
| 20260903184904 | 33 | 107 | 0.0 | 20.9 | 0.00 | 0.00 | 0.00 | 41 | 1012.1 |
| 20260903184351 | 33 | 138 | 6.4 | 24.1 | 0.00 | 0.00 | 0.00 | 42 | 1012.2 |
| 20260903183838 | 33 | 169 | 1.6 | 20.9 | 0.00 | 0.00 | 0.00 | 42 | 1012.1 |
| 20260903183325 | 33 | 239 | 3.2 | 16.1 | 0.00 | 0.00 | 0.00 | 41 | 1012.2 |
| 20260903182812 | 33 | 228 | 0.0 | 14.5 | 0.00 | 0.00 | 0.00 | 42 | 1012.3 |
| 20260903182259 | 33 | 186 | 4.8 | 19.3 | 0.00 | 0.00 | 0.00 | 42 | 1012.4 |
| 20260903181746 | 33 | 134 | 0.0 | 20.9 | 0.00 | 0.00 | 0.00 | 42 | 1012.5 |
| 20260903181233 | 33 | 159 | 0.0 | 17.7 | 0.00 | 0.00 | 0.00 | 44 | 1012.5 |
| 20260903180720 | 33 | 158 | 3.2 | 16.1 | 0.00 | 0.00 | 0.00 | 44 | 1012.6 |
| 20260903180207 | 33 | 215 | 8.0 | 22.5 | 0.00 | 0.00 | 0.00 | 43 | 1012.7 |
| 20260903175654 | 33 | 146 | 0.0 | 12.9 | 0.00 | 0.00 | 0.00 | 44 | 1012.6 |
| 20260903175141 | 33 | 44 | 0.0 | 25.7 | 0.00 | 0.00 | 0.00 | 44 | 1012.7 |
| 20260903174628 | 33 | 236 | 0.0 | 12.9 | 0.00 | 0.00 | 0.00 | 44 | 1012.8 |
| 20260903174115 | 33 | 255 | 0.0 | 14.5 | 0.00 | 0.00 | 0.00 | 44 | 1012.8 |
| 20260903173602 | 33 | 202 | 0.0 | 6.4 | 0.00 | 0.00 | 0.00 | 45 | 1012.8 |
| 20260903173049 | 33 | 225 | 0.0 | 11.3 | 0.00 | 0.00 | 0.00 | 44 | 1012.9 |
| 20260903172536 | 32 | 149 | 0.0 | 12.9 | 0.00 | 0.00 | 0.00 | 45 | 1013.0 |
| 20260903172023 | 32 | 160 | 1.6 | 16.1 | 0.00 | 0.00 | 0.00 | 44 | 1013.1 |
| 20260903171510 | 32 | 217 | 3.2 | 25.7 | 0.00 | 0.00 | 0.00 | 44 | 1013.2 |
| 20260903170957 | 32 | 173 | 0.0 | 14.5 | 0.00 | 0.00 | 0.00 | 45 | 1013.2 |
| 20260903170444 | 32 | 200 | 0.0 | 14.5 | 0.00 | 0.00 | 0.00 | 45 | 1013.2 |
| 20260903165931 | 32 | 188 | 0.0 | 12.9 | 0.00 | 0.00 | 0.00 | 46 | 1013.3 |
| 20260903165418 | 32 | 174 | 0.0 | 6.4 | 0.00 | 0.00 | 0.00 | 46 | 1013.3 |
| 20260903164905 | 31 | 240 | 0.0 | 20.9 | 0.00 | 0.00 | 0.00 | 45 | 1013.4 |
| 20260903164352 | 32 | 226 | 0.0 | 25.7 | 0.00 | 0.00 | 0.00 | 46 | 1013.4 |
| 20260903163839 | 32 | 167 | 4.8 | 12.9 | 0.00 | 0.00 | 0.00 | 46 | 1013.6 |
| 20260903163326 | 32 | 204 | 0.0 | 22.5 | 0.00 | 0.00 | 0.00 | 49 | 1013.6 |
| 20260903162813 | 31 | 134 | 6.4 | 9.7 | 0.00 | 0.00 | 0.00 | 49 | 1013.4 |
| 20260903162300 | 31 | 142 | 0.0 | 8.0 | 0.00 | 0.00 | 0.00 | 49 | 1013.6 |
| 20260903161747 | 31 | 222 | 0.0 | 16.1 | 0.00 | 0.00 | 0.00 | 50 | 1013.6 |
| 20260903161234 | 31 | 197 | 0.0 | 8.0 | 0.00 | 0.00 | 0.00 | 49 | 1013.6 |
| 20260903160721 | 31 | 169 | 4.8 | 14.5 | 0.00 | 0.00 | 0.00 | 51 | 1013.6 |
| 20260903160208 | 30 | 191 | 3.2 | 17.7 | 0.00 | 0.00 | 0.00 | 51 | 1013.7 |
| 20260903155655 | 30 | 256 | 0.0 | 17.7 | 0.00 | 0.00 | 0.00 | 51 | 1013.7 |
| 20260903155142 | 30 | 158 | 8.0 | 19.3 | 0.00 | 0.00 | 0.00 | 51 | 1013.7 |
| 20260903154629 | 30 | 214 | 0.0 | 9.7 | 0.00 | 0.00 | 0.00 | 52 | 1013.8 |
| 20260903154116 | 30 | 150 | 0.0 | 0.0 | 0.00 | 0.00 | 0.00 | 53 | 1013.8 |
| 20260903153603 | 30 | 150 | 0.0 | 11.3 | 0.00 | 0.00 | 0.00 | 54 | 1013.8 |
| 20260903153050 | 30 | 202 | 0.0 | 3.2 | 0.00 | 0.00 | 0.00 | 55 | 1013.8 |
| 20260903152537 | 30 | 291 | 4.8 | 11.3 | 0.00 | 0.00 | 0.00 | 54 | 1013.7 |
| 20260903152024 | 29 | 263 | 4.8 | 16.1 | 0.00 | 0.00 | 0.00 | 55 | 1013.6 |
| 20260903151511 | 29 | 191 | 4.8 | 11.3 | 0.00 | 0.00 | 0.00 | 55 | 1013.7 |
| 20260903150958 | 29 | 181 | 0.0 | 8.0 | 0.00 | 0.00 | 0.00 | 56 | 1013.8 |
| 20260903150445 | 28 | 148 | 0.0 | 14.5 | 0.00 | 0.00 | 0.00 | 56 | 1013.8 |
| 20260903145932 | 28 | 200 | 6.4 | 16.1 | 0.00 | 0.00 | 0.00 | 56 | 1013.7 |
| 20260903145419 | 28 | 215 | 0.0 | 14.5 | 0.00 | 0.00 | 0.00 | 56 | 1013.7 |
| 20260903144906 | 28 | 201 | 11.3 | 17.7 | 0.00 | 0.00 | 0.00 | 57 | 1013.8 |
| 20260903144353 | 28 | 166 | 16.1 | 16.1 | 0.00 | 0.00 | 0.00 | 57 | 1013.8 |
| 20260903143840 | 28 | 222 | 6.4 | 14.5 | 0.00 | 0.00 | 0.00 | 58 | 1013.8 |
| 20260903143327 | 28 | 245 | 6.4 | 27.4 | 0.00 | 0.00 | 0.00 | 57 | 1013.8 |
| 20260903142814 | 28 | 174 | 16.1 | 16.1 | 0.00 | 0.00 | 0.00 | 58 | 1013.8 |
| 20260903142301 | 28 | 255 | 0.0 | 4.8 | 0.00 | 0.00 | 0.00 | 58 | 1013.8 |
| 20260903141748 | 28 | 162 | 6.4 | 9.7 | 0.00 | 0.00 | 0.00 | 58 | 1013.8 |
| 20260903141235 | 28 | 243 | 4.8 | 11.3 | 0.00 | 0.00 | 0.00 | 57 | 1013.8 |
| 20260903140722 | 28 | 252 | 0.0 | 14.5 | 0.00 | 0.00 | 0.00 | 58 | 1013.9 |
| 20260903140209 | 28 | 218 | 4.8 | 24.1 | 0.00 | 0.00 | 0.00 | 57 | 1013.9 |
| 20260903135656 | 28 | 193 | 12.9 | 12.9 | 0.00 | 0.00 | 0.00 | 58 | 1013.9 |
| 20260903135143 | 28 | 187 | 0.0 | 20.9 | 0.00 | 0.00 | 0.00 | 59 | 1013.9 |
| 20260903134630 | 27 | 218 | 0.0 | 25.7 | 0.00 | 0.00 | 0.00 | 58 | 1013.9 |
| 20260903134117 | 27 | 191 | 12.9 | 14.5 | 0.00 | 0.00 | 0.00 | 58 | 1013.8 |
| 20260903133604 | 27 | 167 | 3.2 | 16.1 | 0.00 | 0.00 | 0.00 | 58 | 1013.8 |
| 20260903133051 | 27 | 211 | 0.0 | 11.3 | 0.00 | 0.00 | 0.00 | 59 | 1013.8 |
| 20260903132538 | 27 | 197 | 0.0 | 19.3 | 0.00 | 0.00 | 0.00 | 59 | 1013.8 |
| 20260903132025 | 27 | 200 | 0.0 | 6.4 | 0.00 | 0.00 | 0.00 | 59 | 1013.8 |
| 20260903131512 | 27 | 184 | 0.0 | 20.9 | 0.00 | 0.00 | 0.00 | 60 | 1013.8 |
| 20260903130959 | 27 | 211 | 4.8 | 9.7 | 0.00 | 0.00 | 0.00 | 60 | 1013.8 |
| 20260903130446 | 27 | 194 | 4.8 | 12.9 | 0.00 | 0.00 | 0.00 | 60 | 1013.7 |